When you browse on this site, cookies collect data to enhance your experience and personalize the content and advertising you see.
Visit our Privacy Policy to learn more. By continuing to use the site, you agree to this use of cookies and data.
  • In Lithuania
  • List of Countries
  • For 7 days
  • Water Temperature
  • Satellite Maps
  • Weather Map
  • Weather Widgets
  • user-avatar
    Login

    Hourly Weather Zimnodol

    Today, 24 May, Friday

    Time Temperature Precipitation Wind Pressure Humidity
    00:00 +9°C° 0 mm 1 mps 737 mmHg 85%
    01:00 +7°C° 0 mm 2 mps 737 mmHg 84%
    02:00 +7°C° 0 mm 2 mps 737 mmHg 85%
    03:00 +7°C° 0 mm 2 mps 737 mmHg 87%
    04:00 +6°C° 0 mm 2 mps 737 mmHg 88%
    05:00 +8°C° 0 mm 2 mps 737 mmHg 84%
    06:00 +9°C° 0 mm 2 mps 736 mmHg 79%
    07:00 +12°C° 0 mm 2 mps 736 mmHg 73%
    08:00 +13°C° 0 mm 2 mps 736 mmHg 67%
    09:00 +15°C° 0 mm 2 mps 736 mmHg 62%
    10:00 +16°C° 0 mm 2 mps 736 mmHg 56%
    11:00 +17°C° 0 mm 2 mps 736 mmHg 54%
    12:00 +17°C° 0 mm 2 mps 736 mmHg 52%
    13:00 +18°C° 0 mm 2 mps 735 mmHg 49%
    14:00 +18°C° 0 mm 2 mps 735 mmHg 50%
    15:00 +18°C° 0 mm 2 mps 735 mmHg 51%
    16:00 +19°C° 0 mm 2 mps 735 mmHg 52%
    17:00 +18°C° 0 mm 1 mps 735 mmHg 57%
    18:00 +16°C° 0 mm 1 mps 734 mmHg 62%
    19:00 +13°C° 0 mm 0 mps 734 mmHg 68%
    20:00 +13°C° 0 mm 1 mps 734 mmHg 69%
    21:00 +12°C° 0 mm 1 mps 734 mmHg 70%
    22:00 +10°C° 0 mm 2 mps 734 mmHg 71%
    23:00 +10°C° 0 mm 2 mps 734 mmHg 73%

    Tomorrow, 25 May, Saturday

    Time Temperature Precipitation Wind Pressure Humidity
    00:00 +10°C° 0 mm 2 mps 734 mmHg 74%
    01:00 +10°C° 0 mm 2 mps 734 mmHg 76%
    02:00 +10°C° 0 mm 2 mps 734 mmHg 78%
    03:00 +10°C° 0 mm 2 mps 734 mmHg 79%
    04:00 +10°C° 0 mm 2 mps 734 mmHg 81%
    05:00 +12°C° 0 mm 2 mps 734 mmHg 79%
    06:00 +14°C° 0 mm 2 mps 735 mmHg 77%
    07:00 +16°C° 0 mm 2 mps 735 mmHg 75%
    08:00 +17°C° 0.1 mm 2 mps 735 mmHg 72%
    09:00 +18°C° 0.1 mm 2 mps 735 mmHg 69%
    10:00 +19°C° 0.1 mm 3 mps 735 mmHg 66%
    11:00 +20°C° 0.4 mm 3 mps 735 mmHg 67%
    12:00 +20°C° 0.4 mm 3 mps 735 mmHg 67%
    13:00 +20°C° 0.4 mm 3 mps 735 mmHg 68%
    14:00 +20°C° 0.4 mm 3 mps 735 mmHg 69%
    15:00 +20°C° 0.4 mm 2 mps 734 mmHg 69%
    16:00 +20°C° 0.4 mm 2 mps 734 mmHg 70%
    17:00 +19°C° 0.5 mm 2 mps 734 mmHg 75%
    18:00 +18°C° 0.5 mm 2 mps 734 mmHg 80%
    19:00 +16°C° 0.5 mm 1 mps 734 mmHg 85%
    20:00 +15°C° 0 mm 1 mps 734 mmHg 86%
    21:00 +14°C° 0 mm 2 mps 735 mmHg 87%
    22:00 +13°C° 0 mm 2 mps 735 mmHg 88%
    23:00 +12°C° 0 mm 2 mps 735 mmHg 89%

    Day after tomorrow, 26 May, Sunday

    Time Temperature Precipitation Wind Pressure Humidity
    00:00 +12°C° 0 mm 2 mps 735 mmHg 90%
    01:00 +10°C° 0 mm 2 mps 735 mmHg 91%
    02:00 +10°C° 0 mm 2 mps 735 mmHg 91%
    03:00 +10°C° 0 mm 1 mps 735 mmHg 92%
    04:00 +10°C° 0 mm 1 mps 735 mmHg 92%
    05:00 +11°C° 0 mm 1 mps 735 mmHg 88%
    06:00 +13°C° 0 mm 1 mps 735 mmHg 84%
    07:00 +14°C° 0 mm 1 mps 735 mmHg 80%
    08:00 +16°C° 0 mm 1 mps 735 mmHg 75%
    09:00 +18°C° 0 mm 1 mps 735 mmHg 70%
    10:00 +20°C° 0 mm 1 mps 735 mmHg 65%
    11:00 +20°C° 0.1 mm 2 mps 735 mmHg 64%
    12:00 +20°C° 0.1 mm 2 mps 735 mmHg 62%
    13:00 +21°C° 0.1 mm 2 mps 734 mmHg 61%
    14:00 +21°C° 0 mm 2 mps 734 mmHg 60%
    15:00 +21°C° 0 mm 2 mps 734 mmHg 60%
    16:00 +22°C° 0 mm 3 mps 733 mmHg 60%
    17:00 +20°C° 0.1 mm 2 mps 733 mmHg 66%
    18:00 +19°C° 0.1 mm 2 mps 734 mmHg 73%
    19:00 +19°C° 0.1 mm 1 mps 734 mmHg 79%
    20:00 +18°C° 0 mm 1 mps 734 mmHg 81%
    21:00 +15°C° 0 mm 1 mps 734 mmHg 84%
    22:00 +14°C° 0 mm 2 mps 734 mmHg 86%
    23:00 +14°C° 0 mm 2 mps 734 mmHg 87%

    27 May, Monday

    Time Temperature Precipitation Wind Pressure Humidity
    00:00 +13°C° 0 mm 2 mps 733 mmHg 88%
    01:00 +13°C° 0 mm 2 mps 733 mmHg 90%
    02:00 +13°C° 0 mm 2 mps 733 mmHg 90%
    03:00 +13°C° 0 mm 2 mps 733 mmHg 89%
    04:00 +12°C° 0 mm 3 mps 733 mmHg 89%
    05:00 +13°C° 0 mm 3 mps 733 mmHg 85%
    06:00 +15°C° 0 mm 4 mps 733 mmHg 81%
    07:00 +18°C° 0 mm 4 mps 733 mmHg 78%
    08:00 +19°C° 0 mm 5 mps 733 mmHg 72%
    09:00 +20°C° 0 mm 5 mps 733 mmHg 66%
    10:00 +22°C° 0 mm 5 mps 733 mmHg 60%
    11:00 +22°C° 0 mm 5 mps 733 mmHg 58%
    12:00 +23°C° 0 mm 5 mps 732 mmHg 57%
    13:00 +23°C° 0 mm 4 mps 732 mmHg 55%
    14:00 +23°C° 0 mm 4 mps 732 mmHg 58%
    15:00 +23°C° 0 mm 4 mps 732 mmHg 62%
    16:00 +24°C° 0 mm 3 mps 732 mmHg 65%
    17:00 +22°C° 0.1 mm 3 mps 731 mmHg 71%
    18:00 +20°C° 0.1 mm 3 mps 731 mmHg 76%
    19:00 +19°C° 0.1 mm 2 mps 731 mmHg 82%
    20:00 +18°C° 0.2 mm 2 mps 731 mmHg 85%
    21:00 +17°C° 0.2 mm 2 mps 731 mmHg 88%
    22:00 +16°C° 0.2 mm 2 mps 731 mmHg 90%
    23:00 +16°C° 0.1 mm 1 mps 731 mmHg 91%

    28 May, Tuesday

    Time Temperature Precipitation Wind Pressure Humidity
    00:00 +15°C° 0.1 mm 1 mps 730 mmHg 91%
    01:00 +15°C° 0.1 mm 1 mps 730 mmHg 91%
    02:00 +15°C° 0.1 mm 1 mps 730 mmHg 92%
    03:00 +15°C° 0.1 mm 1 mps 729 mmHg 93%
    04:00 +14°C° 0.1 mm 1 mps 729 mmHg 94%
    05:00 +15°C° 2 mm 1 mps 729 mmHg 95%
    06:00 +15°C° 2 mm 1 mps 729 mmHg 96%
    07:00 +15°C° 2 mm 1 mps 729 mmHg 98%
    08:00 +15°C° 1.3 mm 2 mps 729 mmHg 97%
    09:00 +15°C° 1.3 mm 2 mps 729 mmHg 97%
    10:00 +15°C° 1.3 mm 2 mps 729 mmHg 97%
    11:00 +16°C° 0.4 mm 2 mps 729 mmHg 96%
    12:00 +16°C° 0.4 mm 3 mps 729 mmHg 95%
    13:00 +17°C° 0.4 mm 4 mps 729 mmHg 93%
    14:00 +15°C° 0.5 mm 5 mps 729 mmHg 94%
    15:00 +14°C° 0.5 mm 5 mps 729 mmHg 95%
    16:00 +13°C° 0.5 mm 6 mps 729 mmHg 96%
    17:00 +11°C° 1.1 mm 6 mps 729 mmHg 95%
    18:00 +11°C° 1.1 mm 6 mps 729 mmHg 95%
    19:00 +10°C° 1.1 mm 6 mps 729 mmHg 95%
    20:00 +10°C° 2.9 mm 5 mps 730 mmHg 95%
    21:00 +10°C° 2.9 mm 5 mps 730 mmHg 96%
    22:00 +10°C° 2.9 mm 5 mps 730 mmHg 96%
    23:00 +10°C° 0.5 mm 5 mps 730 mmHg 96%

    29 May, Wednesday

    Time Temperature Precipitation Wind Pressure Humidity
    00:00 +10°C° 0.5 mm 5 mps 731 mmHg 96%
    01:00 +10°C° 0.5 mm 5 mps 731 mmHg 96%
    02:00 +11°C° 0.2 mm 4 mps 731 mmHg 96%
    03:00 +11°C° 0.2 mm 4 mps 732 mmHg 96%
    04:00 +11°C° 0.2 mm 4 mps 732 mmHg 96%
    05:00 +11°C° 0.1 mm 4 mps 732 mmHg 95%
    06:00 +10°C° 0.1 mm 4 mps 733 mmHg 94%
    07:00 +10°C° 0.1 mm 4 mps 733 mmHg 92%
    08:00 +11°C° 0 mm 4 mps 734 mmHg 87%
    09:00 +12°C° 0 mm 4 mps 734 mmHg 83%
    10:00 +14°C° 0 mm 5 mps 735 mmHg 78%
    11:00 +14°C° 0.1 mm 5 mps 735 mmHg 77%
    12:00 +14°C° 0.1 mm 5 mps 736 mmHg 77%
    13:00 +14°C° 0.1 mm 5 mps 736 mmHg 77%
    14:00 +14°C° 0.2 mm 5 mps 736 mmHg 81%
    15:00 +13°C° 0.2 mm 5 mps 737 mmHg 84%
    16:00 +11°C° 0.2 mm 6 mps 737 mmHg 88%
    17:00 +10°C° 0.5 mm 5 mps 737 mmHg 89%
    18:00 +10°C° 0.5 mm 5 mps 738 mmHg 91%
    19:00 +9°C° 0.5 mm 5 mps 738 mmHg 93%
    20:00 +10°C° 0.3 mm 4 mps 738 mmHg 93%
    21:00 +8°C° 0.3 mm 4 mps 739 mmHg 92%
    22:00 +9°C° 0.3 mm 3 mps 740 mmHg 92%
    23:00 +8°C° 0.1 mm 3 mps 740 mmHg 92%
    Show more